Location: Devore Heights
(34.2372°N, 117.4156°W)
Time: 01:22:15
(UTC+00:00)

Vanguard 2 Rocket - Pass Details

Date: 20 September 2024
Orbit: 553 x 3298 km, 32.9° (Epoch: 09 October)

Event Time Altitude Azimuth Distance (km) Brightness Sun altitude
Exits shadow 08:17:10 22° 85° (E) 3,720 10.0 -54.0°
Drops below altitude 10° 08:21:32 10° 83° (E) 5,031 10.8 -53.8°
Sets 08:26:27 0° 81° (E) 6,442 11.5 -53.5°
